Theta_e
323 324 324 323 323 323 322 321 320 321 321 322 322 322 323 324 324 323 322 321 323 322 322 323 323 322 320 321 320 319 318 319 315 318 321 325 325 323 323 321 321 320 321
323 323 323 323 322 322 321 320 320 319 319 320 321 323 326 326 324 322 322 323 322 322 323 322 324 324 320 320 320 321 320 319 317 315 318 319 319 321 320 318 318 319 321
325 325 324 323 325 321 321 322 319 320 320 320 322 325 325 325 323 323 325 323 321 322 323 323 324 323 322 321 322 320 319 320 319 317 317 320 318 318 318 319 319 320 320
327 326 325 324 325 322 321 322 320 321 318 320 325 326 326 326 326 327 326 325 322 323 324 324 325 324 322 322 321 320 319 318 318 318 318 318 317 318 318 316 315 317 315
326 326 325 324 326 322 321 321 321 320 322 326 326 322 321 322 321 325 325 324 323 322 322 325 325 323 321 320 320 319 319 318 318 317 317 317 316 315 314 316 314 314 315
326 326 325 325 326 326 324 321 324 320 323 325 324 320 318 318 304 309 320 324 324 324 322 322 321 318 315 313 314 313 318 318 317 317 317 316 316 317 316 315 314 312 310
326 326 325 325 324 325 325 324 322 323 324 324 319 318 315 313 302 304 311 325 323 323 324 323 321 319 318 317 311 311 311 310 315 320 317 317 317 317 317 315 315 313 313
325 324 325 324 322 322 324 323 323 323 321 320 317 315 314 313 301 303 310 326 321 323 324 322 321 321 320 321 321 320 320 320 320 321 321 320 320 320 320 318 312 311 312
322 323 325 323 323 324 322 319 320 320 318 319 317 315 314 315 300 303 318 325 324 325 324 323 323 321 305 306 320 319 318 315 308 307 305 304 303 305 312 315 312 311 309
322 323 324 323 322 322 320 319 320 320 321 321 319 316 312 316 300 301 316 323 323 323 323 318 309 314 302 306 321 320 317 317 317 313 312 307 308 307 308 313 314 310 307
323 324 325 322 322 322 320 321 321 322 321 320 318 315 315 315 311 301 307 321 322 321 321 319 315 300 300 302 309 321 317 319 313 315 313 312 312 313 314 313 312 313 307
320 323 325 322 325 324 322 321 322 319 318 317 316 315 316 315 305 301 303 309 311 320 321 320 311 299 300 301 310 299 301 311 320 318 314 312 313 314 315 316 314 314 314
322 322 322 323 325 323 321 320 319 318 318 318 318 316 315 315 314 301 300 302 306 316 320 312 299 298 298 299 299 301 305 318 316 317 314 313 314 315 317 318 318 315 312
322 322 322 322 321 321 322 321 320 319 318 319 318 316 314 314 315 314 312 311 304 308 305 307 306 307 305 305 306 309 319 317 316 314 312 313 316 314 315 315 315 312 309
322 322 322 322 321 320 316 317 321 321 321 321 319 318 316 315 317 311 313 316 313 309 309 312 317 317 315 315 316 316 316 317 315 314 313 313 315 314 315 314 312 308 308
320 322 323 323 320 319 312 307 298 301 301 304 309 316 319 309 301 301 303 301 299 300 312 313 311 313 316 316 316 315 315 315 317 316 315 314 316 315 315 314 312 309 307
321 321 322 322 322 318 313 310 309 305 298 299 300 303 307 306 300 300 299 297 298 304 314 312 313 315 315 315 316 316 317 318 318 319 318 316 316 315 311 317 313 310 307
322 310 322 323 323 321 316 312 309 309 311 314 301 301 299 299 298 297 297 300 309 309 315 315 314 314 316 317 317 317 317 317 317 320 319 318 318 318 316 317 318 314 308
321 320 322 321 322 319 319 316 311 309 309 310 307 302 295 293 295 294 297 318 316 316 315 316 317 316 315 317 318 318 318 317 316 318 319 319 319 319 318 319 318 305 303
321 312 313 319 318 319 319 319 316 312 310 310 311 315 302 304 307 307 306 316 318 318 318 318 318 318 318 317 316 317 317 314 315 315 317 319 319 320 319 318 317 314 309
318 316 312 319 318 319 319 319 320 317 314 312 312 312 299 317 316 316 314 314 319 319 320 319 319 318 318 319 319 318 317 316 316 314 315 317 317 316 318 317 317 316 314
316 316 317 319 318 317 318 318 319 320 318 316 314 310 293 317 318 318 318 318 319 320 321 320 320 320 319 318 319 320 319 319 318 317 316 315 317 317 317 316 314 313 312
316 318 315 317 317 310 310 316 316 318 320 319 318 314 306 313 318 318 318 319 319 320 320 319 320 319 319 318 317 317 318 319 320 320 318 317 316 316 316 315 314 312 309
313 315 320 315 314 313 314 312 313 307 316 320 320 318 311 313 317 318 319 320 320 320 321 320 319 318 318 316 316 315 317 317 318 318 319 318 318 313 316 315 315 314 310
314 313 313 317 319 313 313 313 313 313 313 315 319 320 317 314 315 317 317 317 318 318 319 319 319 319 317 317 317 317 310 296 311 307 314 316 316 316 315 315 314 311 301
312 314 314 314 316 320 316 315 314 313 314 314 314 315 317 317 315 316 316 315 315 315 316 317 317 317 316 316 317 309 298 295 298 295 314 315 314 312 313 313 313 312 304
Wind_Speed
9 8 8 7 7 6 6 6 6 4 5 6 5 5 6 4 3 4 4 4 5 5 3 4 5 4 3 3 4 3 4 6 5 2 3 5 7 13 11 15 14 13 14
8 7 7 7 7 7 6 7 6 6 5 4 3 5 3 4 1 1 2 3 4 5 4 3 3 4 5 5 5 5 7 4 7 9 3 5 12 11 15 17 13 12 11
7 8 8 8 6 7 7 6 6 5 3 4 5 3 4 3 1 1 3 4 3 3 2 5 6 6 7 6 7 7 9 8 8 9 9 10 11 12 14 16 13 12 8
9 8 9 7 7 7 6 5 6 4 3 2 3 5 5 4 2 2 3 4 4 3 2 4 7 9 10 10 8 9 11 11 11 10 10 12 12 12 11 14 12 8 9
7 7 8 6 7 6 6 6 5 3 4 4 6 5 5 4 4 4 4 3 4 4 4 5 6 10 13 11 9 10 13 11 10 11 9 13 13 13 13 8 12 9 8
9 8 7 7 7 6 5 5 4 5 3 5 6 5 5 3 6 5 3 3 4 4 6 8 9 13 13 15 13 11 10 14 13 11 8 12 14 13 12 11 11 9 5
9 8 8 6 7 6 5 5 5 5 5 6 6 6 5 3 5 4 3 4 4 5 7 8 9 8 12 11 16 15 15 12 9 15 14 10 13 14 13 13 11 7 5
10 8 7 7 7 6 6 5 4 3 5 6 5 5 4 2 6 4 5 5 5 5 6 7 11 11 12 15 14 14 11 7 7 5 10 11 11 12 11 11 9 7 8
10 10 9 7 7 7 6 6 3 4 4 5 5 6 5 3 7 6 7 5 5 7 7 7 10 11 12 13 15 14 12 8 11 14 12 15 14 15 12 10 8 10 6
11 11 10 8 7 7 7 6 3 3 4 5 5 4 5 4 7 5 7 5 6 5 7 6 9 11 13 14 14 14 12 9 12 11 9 10 9 9 9 6 10 10 6
10 10 9 8 7 7 6 3 4 3 5 5 5 4 4 3 3 4 9 5 5 5 6 6 5 12 13 13 11 12 12 11 10 10 8 6 5 5 4 5 5 9 6
9 9 9 8 7 6 7 5 5 5 6 6 6 4 2 2 4 3 10 8 7 6 6 5 6 13 13 12 8 13 13 11 8 8 7 5 5 4 3 4 6 4 3
10 8 9 7 7 7 6 5 4 5 5 5 5 4 2 1 2 4 9 11 11 5 5 8 12 12 12 9 15 16 11 7 7 8 7 4 3 4 4 4 3 3 3
11 10 9 9 7 6 4 4 5 4 4 5 4 4 3 3 3 2 4 6 9 7 9 7 6 8 7 8 6 6 5 6 6 5 4 3 4 3 2 3 3 3 3
11 10 10 7 7 6 4 2 4 4 7 7 4 5 6 4 4 6 8 6 5 8 8 5 6 4 5 5 6 4 4 4 5 4 4 4 3 3 3 2 3 3 3
10 9 8 8 5 5 5 3 6 2 5 8 11 8 3 4 11 11 10 12 14 14 4 5 4 4 7 6 9 5 3 5 4 4 4 4 4 4 4 3 2 4 4
12 10 7 8 7 6 5 5 5 2 5 3 7 12 11 9 13 12 12 14 15 9 3 4 6 6 6 7 7 6 7 6 5 4 5 5 4 4 5 6 4 4 4
10 13 10 8 8 7 6 5 5 5 4 4 6 1 9 13 12 12 14 11 3 1 3 5 6 7 6 7 7 7 6 5 6 7 7 7 7 7 5 6 7 8 5
10 9 9 8 8 9 7 6 5 4 5 5 3 4 5 6 7 6 15 7 9 7 4 5 5 6 7 8 8 8 8 7 7 7 8 8 9 8 8 9 8 10 7
10 15 11 9 7 7 7 7 7 6 5 5 5 7 5 5 4 5 6 4 7 7 7 7 6 6 7 8 8 9 9 8 8 8 8 9 9 9 10 10 10 8 9
7 8 12 8 9 9 9 8 9 9 9 8 8 7 12 12 12 11 10 9 8 8 8 8 7 7 6 7 8 9 10 10 9 9 9 8 9 10 10 10 11 10 9
3 6 9 11 9 8 8 9 8 10 10 10 9 6 10 9 10 11 11 11 11 10 9 9 8 8 8 8 8 8 9 9 8 9 9 9 9 9 9 10 10 9 9
6 1 6 7 7 8 6 8 8 9 10 10 10 9 9 12 10 11 12 12 11 10 9 9 10 10 9 8 8 9 9 11 11 10 10 10 10 10 9 10 11 10 8
7 7 6 3 4 5 7 8 8 10 10 11 11 11 11 13 13 14 13 12 11 11 11 11 12 14 12 11 10 11 12 11 8 10 14 11 11 11 11 10 11 12 9
6 6 6 6 5 4 5 7 7 8 9 10 11 11 12 12 13 14 12 12 12 12 14 13 13 16 18 19 16 16 13 13 14 11 10 13 14 14 12 11 11 7 5
6 5 4 4 4 6 4 5 7 7 10 10 11 11 13 14 14 14 13 13 13 13 14 12 15 20 19 18 21 19 13 13 12 13 11 10 11 11 10 13 14 9 9
Wind_Direction
112 119 122 123 121 117 124 133 158 160 178 201 210 230 233 222 218 198 230 221 217 227 235 203 201 182 165 162 122 129 113 110 138 84 44 88 95 116 117 107 105 106 105
127 127 113 121 119 117 133 149 151 161 198 208 250 254 203 168 175 209 229 211 231 208 235 204 170 141 96 91 106 119 110 108 136 117 76 113 102 116 118 113 107 102 100
136 132 139 137 135 140 153 163 147 171 203 262 246 159 114 110 80 188 168 145 145 140 194 188 157 125 120 124 117 115 111 111 116 116 112 110 111 119 115 108 117 121 120
150 142 143 149 153 150 145 171 163 186 199 240 134 105 92 87 116 352 60 99 105 89 79 150 133 126 128 128 127 122 121 118 120 119 125 120 123 120 110 118 115 108 108
145 145 147 143 135 145 161 159 176 176 228 161 114 97 86 61 31 58 68 76 87 76 69 84 102 125 129 133 134 133 129 127 125 128 127 118 121 125 128 125 114 114 103
147 143 138 136 147 161 155 174 185 207 169 141 118 130 91 66 2 45 124 113 80 93 104 97 107 108 99 102 103 96 130 141 133 133 135 130 126 126 131 130 124 133 122
142 142 138 147 144 153 155 153 153 167 129 117 123 111 104 93 17 357 94 96 85 105 120 120 101 107 106 108 98 92 84 72 107 137 137 130 128 136 133 135 142 137 128
141 141 148 163 150 157 146 145 139 114 126 125 133 120 111 58 7 69 127 98 76 83 93 104 111 115 119 125 112 105 98 64 93 104 133 138 130 134 131 129 124 105 96
149 151 165 152 149 148 143 156 156 130 138 146 142 138 124 73 18 62 103 93 92 89 101 111 120 120 122 120 117 109 93 80 62 79 90 104 106 112 126 122 129 133 133
157 165 166 158 156 152 157 165 165 151 135 128 130 136 128 118 39 65 112 108 104 102 100 96 100 124 114 115 123 125 118 125 119 110 107 91 100 120 130 129 148 149 139
159 168 156 145 153 148 147 157 153 154 127 117 118 114 123 122 66 105 119 109 125 113 120 124 120 127 115 111 128 137 136 130 110 125 125 115 117 136 128 126 147 149 154
151 145 148 140 153 149 147 141 139 126 122 125 124 114 110 92 55 119 128 116 119 120 122 126 126 126 126 123 111 118 124 123 124 127 134 139 140 134 159 162 173 185 204
144 142 145 142 143 148 144 144 123 123 127 138 138 140 156 119 89 69 125 120 112 108 124 130 133 128 116 93 135 139 133 127 128 135 147 151 153 161 148 139 134 145 62
145 147 147 142 141 141 137 139 136 143 142 152 150 153 157 150 137 114 113 101 99 82 91 108 123 110 100 112 118 138 130 144 152 146 146 149 123 116 154 143 124 139 129
149 151 153 150 160 139 100 147 169 193 175 170 167 161 161 175 188 158 147 138 132 132 112 114 134 128 123 133 150 147 130 139 147 148 155 155 137 150 174 157 139 147 156
151 156 162 159 159 149 141 124 41 32 263 204 162 168 175 152 151 152 148 134 134 143 119 147 146 144 159 162 171 164 154 165 162 156 163 167 175 178 180 180 139 181 174
160 159 161 162 165 157 150 167 160 35 80 155 200 170 171 168 163 155 149 146 152 136 137 164 166 168 164 170 176 183 182 186 168 175 187 187 184 178 169 204 187 182 209
165 164 165 172 171 167 169 176 156 164 162 178 63 169 181 163 167 160 147 125 148 168 162 174 178 175 173 175 178 187 192 177 188 201 201 198 198 201 192 209 206 207 197
164 176 172 172 176 174 169 162 171 169 172 155 111 67 76 78 108 136 167 171 185 196 192 192 182 178 179 180 187 193 197 201 202 203 209 205 202 198 208 212 214 211 178
180 178 176 176 172 176 176 171 173 183 180 182 183 186 133 103 154 184 210 205 193 203 203 206 203 192 190 190 191 200 204 206 212 213 215 211 203 200 210 207 206 206 210
187 178 188 177 183 189 186 186 190 182 187 195 206 181 178 176 189 194 198 206 203 208 208 208 206 202 202 202 201 205 208 215 208 204 204 203 198 202 211 211 212 212 215
203 185 195 195 190 195 200 189 186 195 195 194 201 191 181 197 191 197 203 208 208 207 205 206 214 215 214 207 208 212 217 221 216 210 205 204 203 210 210 212 214 215 211
1 347 185 215 206 192 184 200 195 194 200 202 196 186 179 204 200 204 207 211 210 210 205 206 213 221 220 218 215 211 212 215 214 210 212 211 210 209 205 211 213 214 200
3 9 5 282 219 203 205 202 206 198 198 202 199 196 189 199 209 210 210 211 210 214 214 213 217 221 224 220 215 218 224 223 207 208 206 214 220 214 215 216 216 218 205
334 350 355 346 339 264 232 227 215 211 206 204 207 200 197 201 208 212 212 211 213 215 217 218 220 222 220 223 226 226 217 202 208 205 198 212 214 211 211 213 215 200 154
303 312 320 322 324 327 298 258 233 220 220 215 210 204 198 200 205 208 209 207 210 214 215 218 223 224 226 227 230 230 221 215 213 216 213 213 215 214 211 215 215 204 190